Flag for Norway Weather past 2 weeks in Vennesla, Norway

Now
37 °F

Passing clouds.


Feels Like: 33 °F
Forecast: 34 / 43 °F
Wind: 6 mph from Northwest

Location: Kristiansand / Kjevik

Current Time: Dec 20, 2014 at 7:02:03 PM

Latest Report: Dec 20, 2014 at 6:20 PM


Visibility: N/A

Pressure: 29.53 "Hg

Humidity: 75%

Dew point: 30 °F

Location of VenneslaLocation

Historic Weather in Vennesla — Graph

°F

Vennesla temperature yesterday

Maximum temperature yesterday: 41 °F (at 1:20 AM)
Minimum temperature yesterday: 34 °F (at 12:20 AM)
Average temperature yesterday: 39 °F

Past Weeks' High & Low Weather Summary

 TemperatureHumidityPressure
High48 °F (Dec 7, 8:50 AM)100% (Dec 5, 5:20 PM)30.07 "Hg (Dec 5, 5:20 PM)
Low25 °F (Dec 9, 6:50 AM)57% (Dec 6, 1:20 PM)29.00 "Hg (Dec 12, 2:50 PM)
Average37 °F89%29.44 "Hg
* Reported Dec 5 5:20 PM — Dec 20 5:50 PM, Vennesla, Weather by CustomWeather, © 2014

Note: Actual official high and low records may vary slightly from our data, if they occured in-between our weather recording intervals... More about our weather records

Advertising

Vennesla weather history for previous 24 hours

 ConditionsComfort  
Time TempWeatherWind HumidityBarometerVisibility
5:50 PM
Dec 20
37 °FPassing clouds.5 mph70%29.53 "HgN/A
5:20 PM36 °FPassing clouds.3 mph75%29.50 "HgN/A
4:50 PM37 °FPassing clouds.3 mph75%29.47 "HgN/A
4:20 PM37 °FPassing clouds.3 mph70%29.45 "HgN/A
3:50 PM37 °FPassing clouds.2 mph70%29.45 "HgN/A
3:20 PM39 °FPassing clouds.6 mph65%29.42 "HgN/A
2:50 PM37 °FPassing clouds.5 mph70%29.42 "HgN/A
2:20 PM39 °FPassing clouds.7 mph70%29.39 "HgN/A
1:50 PM37 °FPassing clouds.2 mph75%29.39 "HgN/A
1:20 PM37 °FScattered clouds.2 mph81%29.33 "HgN/A
12:50 PM36 °FScattered clouds.2 mph87%29.30 "HgN/A
12:20 PM37 °FPassing clouds.5 mph81%29.27 "HgN/A
11:50 AM34 °FScattered clouds.1 mph93%29.27 "HgN/A
11:20 AM36 °FScattered clouds.3 mph87%29.27 "HgN/A
10:50 AM34 °FScattered clouds.2 mph93%29.27 "HgN/A
10:20 AM34 °FScattered clouds.2 mph87%29.27 "HgN/A
9:50 AM36 °FScattered clouds.6 mph87%29.24 "HgN/A
9:20 AM37 °FPassing clouds.8 mph81%29.24 "HgN/A
8:50 AM37 °FPassing clouds.8 mph81%29.24 "HgN/A
8:20 AM37 °FClear.10 mph81%29.24 "Hg10 mi
7:50 AM37 °FClear.13 mph81%29.24 "Hg10 mi
7:20 AM37 °FClear.13 mph81%29.24 "Hg10 mi
6:50 AM37 °FClear.14 mph87%29.24 "Hg10 mi
6:20 AM37 °FPassing clouds.12 mph87%29.24 "HgN/A
5:50 AM37 °FPassing clouds.13 mph87%29.24 "HgN/A
5:20 AM37 °FPassing clouds.13 mph87%29.27 "HgN/A
4:50 AM37 °FPartly cloudy.12 mph87%29.27 "HgN/A
4:20 AM37 °FPassing clouds.10 mph87%29.27 "HgN/A
3:50 AM37 °FPassing clouds.8 mph87%29.27 "HgN/A
3:20 AM37 °FLight rain. Passing clouds.9 mph87%29.27 "HgN/A
2:50 AM37 °FPassing clouds.10 mph87%29.27 "HgN/A
2:20 AM37 °FLight rain. Passing clouds.5 mph87%29.27 "HgN/A
1:50 AM37 °FPassing clouds.9 mph87%29.27 "HgN/A
1:20 AM37 °FPassing clouds.13 mph93%29.27 "HgN/A
12:50 AM39 °FLight rain. Partly cloudy.16 mph81%29.27 "HgN/A
12:20 AM37 °FPassing clouds.14 mph87%29.27 "HgN/A
11:50 PM
Dec 19
39 °FLight rain. Passing clouds.17 mph81%29.30 "HgN/A
11:20 PM39 °FPassing clouds.14 mph87%29.30 "HgN/A
10:50 PM39 °FPassing clouds.15 mph81%29.30 "HgN/A
10:20 PM39 °FPassing clouds.8 mph81%29.30 "HgN/A
9:50 PM39 °FPassing clouds.7 mph81%29.30 "HgN/A
9:20 PM39 °FPassing clouds.8 mph81%29.30 "HgN/A
8:50 PM39 °FPassing clouds.12 mph81%29.30 "HgN/A
8:20 PM39 °FPassing clouds.10 mph81%29.30 "HgN/A
7:50 PM39 °FPassing clouds.13 mph81%29.27 "HgN/A
7:20 PM39 °FPassing clouds.13 mph81%29.27 "HgN/A
Weather by CustomWeather, © 2014

See weather overviewHow to use our weather pages